Satellite: CO-57
Catalog number: 27848
Epoch time:      09280.53257089
Element set:    0635
Inclination:      098.7173 deg
RA of node:       287.1870 deg
Eccentricity:    0.0009442
Arg of perigee:   179.9016 deg
Mean anomaly:     180.2161 deg
Mean motion:   14.20458734 rev/day
Decay rate:        4.1e-07 rev/day^2
Epoch rev:           32517
Checksum:              324

Satellite: AO-51
Catalog number: 28375
Epoch time:      09281.59093878
Element set:     504
Inclination:      098.0546 deg
RA of node:       284.6021 deg
Eccentricity:    0.0083946
Arg of perigee:   140.2119 deg
Mean anomaly:     220.5267 deg
Mean motion:   14.40654221 rev/day
Decay rate:        8.0e-08 rev/day^2
Epoch rev:           27728
Checksum:              311

Satellite: CO-56
Catalog number: 28941
Epoch time:      09281.53967874
Element set:     507
Inclination:      098.1262 deg
RA of node:       118.8892 deg
Eccentricity:    0.0038214
Arg of perigee:   054.9304 deg
Mean anomaly:     305.5540 deg
Mean motion:   16.08519477 rev/day
Decay rate:    3.13380e-03 rev/day^2
Epoch rev:           20529
Checksum:              337

Satellite: GENESAT1
Catalog number: 29655
Epoch time:      09281.89100695
Element set:     827
Inclination:      040.0231 deg
RA of node:       189.6561 deg
Eccentricity:    0.0005361
Arg of perigee:   275.6780 deg
Mean anomaly:     084.3402 deg
Mean motion:   15.68128361 rev/day
Decay rate:     1.5014e-04 rev/day^2
Epoch rev:           16031
Checksum:              290

Satellite: CP3
Catalog number: 31129
Epoch time:      09281.65704995
Element set:     245
Inclination:      097.9759 deg
RA of node:       329.2286 deg
Eccentricity:    0.0101610
Arg of perigee:   294.1148 deg
Mean anomaly:     064.9444 deg
Mean motion:   14.52167747 rev/day
Decay rate:       1.52e-06 rev/day^2
Epoch rev:           13135
Checksum:              316

Satellite: CO-65
Catalog number: 32785
Epoch time:      09281.72724261
Element set:     492
Inclination:      097.9336 deg
RA of node:       344.6825 deg
Eccentricity:    0.0015800
Arg of perigee:   025.9497 deg
Mean anomaly:     334.2494 deg
Mean motion:   14.81524469 rev/day
Decay rate:        6.3e-07 rev/day^2
Epoch rev:            7825
Checksum:              336

Satellite: KKS-1
Catalog number: 33493
Epoch time:      09281.76210036
Element set:     826
Inclination:      098.0665 deg
RA of node:       034.5269 deg
Eccentricity:    0.0019072
Arg of perigee:   232.2138 deg
Mean anomaly:     127.7359 deg
Mean motion:   14.80742457 rev/day
Decay rate:       3.19e-06 rev/day^2
Epoch rev:            3827
Checksum:              306

Satellite: SOHLA-1
Catalog number: 33496
Epoch time:      09281.89923816
Element set:     792
Inclination:      098.0456 deg
RA of node:       029.4798 deg
Eccentricity:    0.0005441
Arg of perigee:   287.0214 deg
Mean anomaly:     073.0385 deg
Mean motion:   14.69449172 rev/day
Decay rate:        3.1e-07 rev/day^2
Epoch rev:            3797
Checksum:              333

/EX
SB KEPS @ AMSAT  $ORB09281.W
Orbital Elements  09281.WEATHER

HR AMSAT ORBITAL ELEMENTS FOR WEATHER SATELLITES
FROM WA5QGD FORT WORTH,TX October 8, 2009
Send Subscribe/unsubscribe to KEPS at 
http://www.amsat.org/mailman/listinfo/keps
BID: ORB09281.W
TO ALL RADIO AMATEURS BT

Satellite: NOAA-10
Catalog number: 16969
Epoch time:      09280.59374130
Element set:    0788
Inclination:      098.6844 deg
RA of node:       306.5948 deg
Eccentricity:    0.0011637
Arg of perigee:   227.1920 deg
Mean anomaly:     132.8280 deg
Mean motion:   14.27395923 rev/day
Decay rate:        3.4e-07 rev/day^2
Epoch rev:           19954
Checksum:              336

Satellite: NOAA-11
Catalog number: 19531
Epoch time:      09280.64567305
Element set:    0806
Inclination:      098.7824 deg
RA of node:       008.8471 deg
Eccentricity:    0.0011916
Arg of perigee:   145.1500 deg
Mean anomaly:     215.0457 deg
Mean motion:   14.14905442 rev/day
Decay rate:       2.75e-06 rev/day^2
Epoch rev:           08542
Checksum:              291

Satellite: NOAA-12
Catalog number: 21263
Epoch time:      09280.96663223
Element set:    0311
Inclination:      098.7751 deg
RA of node:       289.0936 deg
Eccentricity:    0.0012152
Arg of perigee:   174.7184 deg
Mean anomaly:     185.4126 deg
Mean motion:   14.25596100 rev/day
Decay rate:        3.5e-07 rev/day^2
Epoch rev:           95646
Checksum:              304

Satellite: MET-3/5
Catalog number: 21655
Epoch time:      09280.96327109
Element set:    0798
Inclination:      082.5536 deg
RA of node:       126.8461 deg
Eccentricity:    0.0012496
Arg of perigee:   258.8952 deg
Mean anomaly:     101.0766 deg
Mean motion:   13.17021101 rev/day
Decay rate:        5.1e-07 rev/day^2
Epoch rev:           87247
Checksum:              308

Satellite: MET-2/21
Catalog number: 22782
Epoch time:      09281.56749737
Element set:     585
Inclination:      082.5433 deg
RA of node:       092.0721 deg
Eccentricity:    0.0023230
Arg of perigee:   031.9247 deg
Mean anomaly:     328.3320 deg
Mean motion:   13.83638303 rev/day
Decay rate:       -7.2e-07 rev/day^2
Epoch rev:           81328
Checksum:              296

